Weather History for KRCX - January, 2014

Change the Weather History Date:

Tuesday, January 7, 2014

  Actual Average (KRPD) Record (KRPD)
Temperature  
Mean Temperature -16 °F -  
Max Temperature -3 °F 21 °F -2 °F (2015)
Min Temperature -30 °F 6 °F -11 °F (2015)
Degree Days  
Heating Degree Days 82    
Moisture  
Dew Point -22 °F    
Average Humidity 71    
Maximum Humidity 79    
Minimum Humidity 59    
Precipitation  
Precipitation 0.00 in - - ()
Sea Level Pressure  
Sea Level Pressure 30.09 in    
Wind  
Wind Speed 5 mph (WSW)    
Max Wind Speed 10 mph    
Max Gust Speed -    
Visibility 10 miles    
Events      
Averages and records for this station are not official NWS values.
T = Trace of Precipitation, MM = Missing Value Source: NWS Daily Summary

Daily Weather History Graph

Daily Weather History Graph

Search for Another Location

Airport or City:

Trip Planner

Search our weather history database for the weather conditions in past years. The results will help you decide how hot, cold, wet, or windy it might be!

Date:

Astronomy

Jan. 07, 2014 Rise Set
Actual Time 7:43 AM CST 4:37 PM CST
Civil Twilight 7:09 AM CST 5:11 PM CST
Nautical Twilight 6:32 AM CST 5:48 PM CST
Astronomical Twilight 5:56 AM CST 6:24 PM CST
Moon 11:10 AM CST (1/7) No Moon Set
Length of Visible Light 10h 01m
Length of Day
8h 54m
Waxing Crescent, 46% of the Moon is Illuminated
Jan 7
Waxing Crescent
Jan 7
First Quarter
Jan 15
Full
Jan 23
Last Quarter
Jan 30
New

Hourly Weather History & Observations

Time (CST) Temp. Windchill Dew Point Humidity Pressure Visibility Wind Dir Wind Speed Gust Speed Precip Events Conditions
12:15 AM -21.3 °F -36.8 °F -28.3 °F 70% 30.03 in 10.0 mi West 5.8 mph - N/A   Clear
12:35 AM -22.0 °F -37.7 °F -28.5 °F 72% 30.02 in 10.0 mi WSW 5.8 mph - N/A   Clear
12:55 AM -22.9 °F -36.6 °F -29.2 °F 72% 30.03 in 10.0 mi WSW 4.6 mph - N/A   Clear
1:15 AM -22.5 °F -38.3 °F -28.8 °F 72% 30.03 in 10.0 mi WSW 5.8 mph - N/A   Clear
1:35 AM -22.5 °F -38.3 °F -29.2 °F 71% 30.04 in 10.0 mi WSW 5.8 mph - N/A   Clear
1:55 AM -22.7 °F -40.3 °F -29.4 °F 71% 30.04 in 10.0 mi WSW 6.9 mph - N/A   Clear
2:15 AM -22.7 °F -38.5 °F -29.6 °F 70% 30.05 in 10.0 mi WSW 5.8 mph - N/A   Clear
2:35 AM -22.7 °F -40.3 °F -29.6 °F 70% 30.05 in 10.0 mi WSW 6.9 mph - N/A   Clear
2:55 AM -23.4 °F -37.3 °F -30.1 °F 71% 30.05 in 10.0 mi West 4.6 mph - N/A   Clear
3:15 AM -23.8 °F -37.7 °F -30.1 °F 72% 30.05 in 10.0 mi WSW 4.6 mph - N/A   Clear
3:35 AM -24.0 °F - -29.9 °F 74% 30.05 in 10.0 mi Calm Calm - N/A   Clear
3:55 AM -25.1 °F - -31.0 °F 74% 30.04 in 10.0 mi Calm Calm - N/A   Clear
4:15 AM -26.0 °F -37.5 °F -31.9 °F 73% 30.03 in 10.0 mi South 3.5 mph - N/A   Clear
4:35 AM -30.1 °F -42.2 °F -36.4 °F 72% 30.03 in 10.0 mi SW 3.5 mph - N/A   Clear
4:55 AM -25.8 °F -40.0 °F -31.4 °F 75% 30.02 in 10.0 mi SW 4.6 mph - N/A   Clear
5:15 AM -24.3 °F -40.4 °F -30.3 °F 74% 30.02 in 10.0 mi SW 5.8 mph - N/A   Clear
5:35 AM -24.5 °F -42.5 °F -30.8 °F 72% 30.03 in 10.0 mi WSW 6.9 mph - N/A   Clear
5:55 AM -24.5 °F -40.7 °F -30.6 °F 73% 30.04 in 10.0 mi WSW 5.8 mph - N/A   Clear
6:15 AM -24.2 °F -38.1 °F -30.1 °F 74% 30.03 in 10.0 mi WSW 4.6 mph - N/A   Clear
6:35 AM -24.2 °F -40.2 °F -30.1 °F 74% 30.04 in 10.0 mi WSW 5.8 mph - N/A   Clear
6:55 AM -23.4 °F -39.4 °F -29.2 °F 74% 30.05 in 10.0 mi WSW 5.8 mph - N/A   Scattered Clouds
7:15 AM -23.3 °F -37.0 °F -29.2 °F 74% 30.05 in 10.0 mi WSW 4.6 mph - N/A   Clear
7:35 AM -22.9 °F -36.6 °F -28.8 °F 74% 30.05 in 10.0 mi WSW 4.6 mph - N/A   Scattered Clouds
7:55 AM -21.5 °F -34.9 °F -27.6 °F 73% 30.05 in 10.0 mi WSW 4.6 mph - N/A   Overcast
8:15 AM -19.8 °F -33.1 °F -25.8 °F 74% 30.05 in 10.0 mi WSW 4.6 mph - N/A   Overcast
8:35 AM -18.9 °F -34.0 °F -25.1 °F 74% 30.06 in 10.0 mi SW 5.8 mph - N/A   Overcast
8:55 AM -18.4 °F -33.4 °F -24.3 °F 74% 30.07 in 10.0 mi SW 5.8 mph - N/A   Overcast
9:15 AM -17.5 °F -34.0 °F -23.1 °F 76% 30.08 in 7.0 mi SW 6.9 mph - N/A   Overcast
9:35 AM -16.6 °F -32.9 °F -22.4 °F 75% 30.09 in 7.0 mi SW 6.9 mph - N/A   Overcast
9:55 AM -15.7 °F -28.2 °F -21.1 °F 77% 30.09 in 10.0 mi SW 4.6 mph - N/A   Overcast
10:15 AM -14.3 °F -30.1 °F -19.5 °F 77% 30.10 in 10.0 mi SW 6.9 mph - N/A   Overcast
10:35 AM -12.3 °F -26.1 °F -17.7 °F 77% 30.10 in 10.0 mi WSW 5.8 mph - N/A   Overcast
10:55 AM -10.3 °F -26.7 °F -16.6 °F 74% 30.10 in 10.0 mi West 8.1 mph - N/A   Overcast
11:15 AM -8.9 °F -22.1 °F -16.4 °F 69% 30.09 in 10.0 mi WSW 5.8 mph - N/A   Overcast
11:35 AM -7.4 °F -23.2 °F -15.5 °F 68% 30.08 in 4.0 mi WSW 8.1 mph - N/A   Haze
11:55 AM -7.1 °F -25.0 °F -16.1 °F 65% 30.08 in 10.0 mi SW 10.4 mph - N/A   Mostly Cloudy
12:15 PM -6.2 °F -21.7 °F -15.7 °F 63% 30.07 in 7.0 mi WSW 8.1 mph - N/A   Clear
12:35 PM -5.4 °F -20.8 °F -15.5 °F 62% 30.06 in 10.0 mi WSW 8.1 mph - N/A   Clear
12:55 PM -4.9 °F -18.8 °F -14.8 °F 62% 30.05 in 10.0 mi WSW 6.9 mph - N/A   Clear
1:15 PM -4.0 °F -17.8 °F -14.8 °F 60% 30.05 in 10.0 mi WSW 6.9 mph - N/A   Clear
1:35 PM -3.6 °F -17.3 °F -14.3 °F 60% 30.05 in 10.0 mi WSW 6.9 mph - N/A   Scattered Clouds
1:55 PM -3.5 °F -18.4 °F -13.5 °F 62% 30.05 in 10.0 mi West 8.1 mph - N/A   Clear
2:15 PM -3.1 °F -19.1 °F -14.1 °F 59% 30.06 in 10.0 mi SW 9.2 mph - N/A   Clear
2:35 PM -3.1 °F -16.7 °F -13.9 °F 60% 30.06 in 10.0 mi WSW 6.9 mph - N/A   Clear
2:55 PM -3.1 °F -16.7 °F -13.9 °F 60% 30.07 in 10.0 mi WSW 6.9 mph - N/A   Clear
3:15 PM -3.3 °F -18.2 °F -14.1 °F 60% 30.08 in 10.0 mi WSW 8.1 mph - N/A   Clear
3:35 PM -3.5 °F -18.4 °F -14.1 °F 60% 30.08 in 10.0 mi WSW 8.1 mph - N/A   Clear
3:55 PM -4.5 °F -18.4 °F -14.4 °F 62% 30.09 in 10.0 mi WSW 6.9 mph - N/A   Clear
4:15 PM -5.1 °F -19.1 °F -14.4 °F 64% 30.09 in 10.0 mi WSW 6.9 mph - N/A   Clear
4:35 PM -5.6 °F -16.5 °F -14.6 °F 65% 30.10 in 10.0 mi WSW 4.6 mph - N/A   Clear
4:55 PM -5.1 °F -17.6 °F -13.5 °F 67% 30.10 in 10.0 mi WSW 5.8 mph - N/A   Clear
5:15 PM -4.7 °F -18.6 °F -13.2 °F 67% 30.11 in 10.0 mi WSW 6.9 mph - N/A   Clear
5:35 PM -4.5 °F -15.2 °F -13.0 °F 67% 30.11 in 10.0 mi WSW 4.6 mph - N/A   Clear
5:55 PM -4.5 °F -13.0 °F -13.0 °F 67% 30.12 in 10.0 mi WSW 3.5 mph - N/A   Clear
6:15 PM -4.9 °F -13.4 °F -13.2 °F 68% 30.12 in 10.0 mi WSW 3.5 mph - N/A   Clear
6:35 PM -5.3 °F -13.8 °F -13.4 °F 68% 30.13 in 10.0 mi WSW 3.5 mph - N/A   Clear
6:55 PM -5.8 °F - -13.9 °F 68% 30.13 in 10.0 mi Calm Calm - N/A   Clear
7:15 PM -7.6 °F -16.5 °F -14.8 °F 71% 30.14 in 10.0 mi West 3.5 mph - N/A   Clear
7:35 PM -9.0 °F - -15.9 °F 72% 30.13 in 10.0 mi Calm Calm - N/A   Clear
7:55 PM -11.4 °F - -17.5 °F 74% 30.14 in 10.0 mi Calm Calm - N/A   Clear
8:15 PM -13.2 °F -22.9 °F -18.8 °F 76% 30.15 in 10.0 mi WSW 3.5 mph - N/A   Clear
8:35 PM -14.8 °F -24.8 °F -19.5 °F 79% 30.15 in 10.0 mi WSW 3.5 mph - N/A   Clear
8:55 PM -15.7 °F - -20.7 °F 78% 30.16 in 10.0 mi Calm Calm - N/A   Clear
9:15 PM -15.3 °F -25.4 °F -20.2 °F 79% 30.16 in 10.0 mi SW 3.5 mph - N/A   Clear
9:35 PM -16.1 °F -26.2 °F -21.1 °F 78% 30.17 in 10.0 mi WSW 3.5 mph - N/A   Clear
9:55 PM -15.5 °F - -20.6 °F 78% 30.17 in 10.0 mi Calm Calm - N/A   Clear
10:15 PM -14.3 °F - -19.3 °F 78% 30.17 in 10.0 mi Calm Calm - N/A   Clear
10:35 PM -18.0 °F - -23.8 °F 75% 30.18 in 10.0 mi Calm Calm - N/A   Clear
10:55 PM -20.0 °F - -25.6 °F 75% 30.18 in 10.0 mi Calm Calm - N/A   Clear
11:15 PM -20.9 °F - -27.0 °F 73% 30.19 in 10.0 mi Calm Calm - N/A   Clear
11:35 PM -20.6 °F - -26.5 °F 74% 30.19 in 10.0 mi Calm Calm - N/A   Clear
11:55 PM -22.7 °F - -28.8 °F 73% 30.19 in 10.0 mi Calm Calm - N/A   Clear